Theta_e
322 324 327 326 328 328 331 333 333 337 331 329 335 333 329 329 325 318 318 318 319 321 321 322 323 322 324 325 328 334 334 331 332 333 336 334 325 329 331 328 331 330 330 331 333 336 336 338 337 338 339 338 339 339 338 339 338 339 339 339 339 339 339 339 339 339 339 339 338 339 338 338 337 336 335 335 335 335 335 335 337 337 338 338 338 338 338 338 338 337 337 336 335 335 334 333 331
323 327 328 327 328 326 334 338 337 339 335 331 331 333 331 326 320 320 321 321 323 320 321 324 325 326 326 325 325 328 328 325 327 330 330 324 324 329 329 329 331 331 330 331 332 334 335 335 335 336 337 336 337 337 337 337 337 338 338 338 338 338 338 338 338 338 338 338 337 336 336 335 335 334 334 333 333 333 333 333 334 335 336 337 337 337 336 336 335 335 335 333 333 333 332 331 330
324 329 329 328 327 329 340 338 335 334 327 325 327 333 328 321 322 325 323 321 321 318 321 321 322 326 324 324 322 323 328 327 324 326 324 320 325 328 328 329 329 331 329 330 332 333 334 334 334 335 335 335 335 336 336 336 336 337 337 336 337 337 337 337 336 336 335 335 335 334 334 333 332 332 332 331 331 331 331 331 332 333 333 334 334 334 333 333 332 333 332 331 330 330 328 327 327
326 329 327 328 328 336 348 338 341 336 323 328 331 337 334 326 326 327 327 323 320 317 319 319 319 320 320 324 323 321 327 329 323 326 328 321 324 328 328 328 328 329 328 328 329 331 333 333 333 334 334 334 334 335 334 334 335 334 335 334 334 334 334 334 334 333 333 333 332 332 331 331 331 330 330 329 329 328 328 328 329 329 330 331 331 331 330 330 329 328 327 326 324 322 320 320 320
326 328 324 328 330 335 341 331 339 334 324 335 335 340 344 334 328 329 330 323 319 319 319 318 320 317 316 322 322 323 327 328 320 318 324 322 324 327 328 328 327 327 327 327 326 327 329 330 331 332 333 333 333 333 332 333 333 333 333 332 332 332 331 332 331 331 331 331 330 330 330 329 329 327 328 327 325 323 323 324 325 326 326 326 327 326 324 323 322 318 316 313 311 309 308 308 309
325 326 323 324 324 327 334 328 333 333 329 335 335 339 342 334 327 328 329 323 321 321 319 318 319 317 318 320 319 322 324 323 321 318 319 320 323 326 328 327 326 327 326 326 324 325 327 329 329 330 332 331 332 331 331 331 331 331 331 331 331 330 330 330 330 329 329 329 329 329 328 327 326 323 324 322 319 318 318 318 320 321 321 320 319 318 315 312 310 307 304 302 301 301 300 300 301
323 324 327 326 324 328 336 334 336 339 333 329 334 334 331 329 323 323 324 321 320 319 317 318 319 317 319 319 319 319 317 319 320 320 317 319 323 325 328 326 327 326 325 326 324 324 326 328 328 330 330 329 330 330 330 329 329 329 329 330 329 329 328 328 328 327 327 327 327 326 326 325 322 318 318 315 312 309 308 308 309 311 312 312 311 310 308 305 303 301 300 299 298 298 298 298 298
324 327 330 333 332 328 332 333 333 336 331 325 329 329 327 326 322 322 322 320 319 318 317 319 319 317 317 317 323 321 314 318 318 318 317 319 323 325 327 326 327 326 325 325 322 324 325 327 328 329 329 329 329 328 329 328 328 328 328 328 328 328 327 327 326 325 325 325 325 324 322 320 316 312 310 306 304 303 301 301 301 302 304 304 305 306 305 302 301 299 299 298 298 298 298 298 298
322 325 326 331 329 325 330 330 327 327 328 325 322 324 325 323 322 322 323 322 319 319 319 321 319 316 318 318 325 321 314 318 317 317 317 319 323 324 327 325 326 325 325 324 321 321 321 325 326 328 328 328 328 327 328 327 327 327 327 327 327 327 326 326 324 323 321 319 319 316 314 311 307 305 303 301 300 300 300 300 300 301 301 301 303 304 303 302 301 300 299 298 298 298 298 298 297
322 323 324 329 324 322 327 326 326 326 329 328 321 322 322 321 322 320 322 322 319 319 318 319 316 315 318 322 326 319 316 318 316 318 316 320 323 324 326 325 326 325 325 324 321 320 319 321 324 327 327 327 327 326 326 326 326 326 326 325 325 326 325 323 319 316 313 311 309 307 305 303 302 301 300 299 299 300 299 299 299 300 300 302 304 304 303 302 301 301 301 300 298 298 298 298 297
329 329 327 327 325 324 324 325 330 331 331 326 323 324 320 319 320 318 319 320 320 318 317 316 316 319 318 322 329 318 314 316 316 318 317 320 323 323 325 324 325 325 325 324 322 322 319 317 321 324 324 325 326 325 326 325 325 325 325 324 324 323 320 316 311 309 306 305 304 303 301 300 300 299 299 299 299 299 299 299 299 299 299 301 302 302 303 302 300 300 300 299 299 298 298 297 297
328 334 336 330 330 329 327 332 333 333 332 326 328 326 317 316 319 319 320 319 321 319 319 317 317 321 317 323 328 315 311 316 317 317 318 321 322 323 323 323 324 324 324 323 323 322 319 316 317 320 320 322 324 325 325 325 325 323 323 321 318 315 311 308 305 304 303 302 301 300 300 299 299 298 298 298 298 298 298 298 299 299 299 299 299 299 300 299 298 297 297 297 297 297 297 297 297
330 335 338 330 333 331 327 334 335 332 331 331 329 320 315 318 320 321 322 319 319 319 320 319 316 317 318 324 325 319 316 315 316 316 318 320 321 323 323 323 323 324 324 323 323 322 319 316 315 317 318 321 322 324 324 323 321 318 315 312 309 306 304 303 301 300 300 300 299 299 298 298 298 298 298 298 298 298 297 298 297 298 297 297 297 297 297 297 297 296 296 296 296 296 296 297 297
330 336 335 326 329 330 327 331 332 328 327 333 329 316 314 319 320 321 321 319 320 320 318 315 315 316 319 321 326 334 325 314 316 316 318 320 321 321 321 322 322 323 323 322 322 321 319 316 315 315 317 320 320 321 320 317 313 309 306 305 303 301 300 300 299 299 298 298 298 298 298 298 298 297 297 298 297 297 297 297 297 296 296 296 296 296 297 296 296 296 296 296 296 296 296 296 296
323 338 337 327 329 328 326 326 326 323 322 329 324 315 316 317 319 321 319 319 321 318 313 312 314 317 320 321 326 332 319 313 316 316 318 319 319 320 320 321 321 321 321 321 320 319 317 315 315 315 316 318 317 316 314 312 308 305 303 301 300 299 298 298 298 298 298 298 298 298 298 298 298 297 297 297 297 297 297 296 296 296 296 296 296 296 296 296 296 296 296 296 296 296 296 296 296
327 341 333 328 330 324 324 324 322 323 326 333 323 315 318 318 317 318 317 316 318 315 314 316 314 315 320 322 320 315 311 314 315 315 317 317 317 317 318 319 320 320 320 320 319 317 316 315 316 316 316 315 314 311 309 308 306 304 302 300 299 298 298 298 298 298 298 298 298 298 298 298 298 297 297 297 297 297 296 296 296 296 296 296 296 296 296 295 295 295 295 295 295 295 295 295 296
328 335 328 326 329 325 326 326 322 322 329 336 326 318 318 320 318 314 312 313 318 317 317 320 313 313 318 318 313 309 311 313 313 315 315 314 314 314 316 318 318 319 319 318 318 317 315 314 315 316 315 313 311 308 306 305 304 303 301 299 299 298 298 298 297 298 298 297 297 297 297 298 297 297 297 297 297 296 296 296 296 296 296 296 296 295 295 295 295 295 294 294 294 294 295 294 295
324 327 324 322 327 328 330 331 326 321 323 325 321 319 318 321 321 315 313 315 318 316 318 320 315 314 312 310 310 310 311 312 312 313 311 310 310 311 313 315 317 318 318 318 317 317 316 314 314 315 314 312 310 307 305 304 304 304 301 299 299 298 298 297 297 297 297 297 297 297 297 297 297 297 296 296 296 296 296 296 296 296 296 296 295 295 295 295 295 294 294 294 294 294 294 294 294
327 329 322 324 330 328 328 331 327 320 320 320 320 319 317 319 318 314 315 319 319 316 317 318 317 318 313 309 309 310 310 310 311 310 309 308 307 309 310 312 314 315 316 317 317 316 316 315 314 314 313 310 308 306 304 304 304 303 301 299 298 298 297 297 297 297 297 296 296 296 296 296 296 296 296 296 296 296 296 296 296 296 296 295 295 295 294 294 294 294 294 294 294 294 294 294 294
329 327 324 331 330 325 325 325 323 321 319 318 318 316 316 319 316 313 316 319 318 317 317 316 319 321 319 316 308 307 308 307 309 309 307 307 307 308 309 310 311 313 315 316 315 316 315 314 313 313 312 309 307 305 304 304 304 303 301 299 298 298 297 297 297 296 296 296 296 296 296 296 296 296 296 296 296 296 296 296 296 295 295 295 294 294 294 294 293 293 293 293 293 293 293 294 294
326 323 326 334 325 321 324 323 322 321 317 316 317 315 316 318 315 315 317 317 317 316 317 316 318 319 320 324 311 305 307 306 306 307 306 306 306 307 309 310 311 312 313 313 314 314 314 313 312 312 311 309 306 304 304 303 303 302 301 298 297 297 297 297 296 296 296 296 296 295 295 296 296 296 296 296 296 296 296 296 295 295 294 294 294 294 293 293 293 293 293 293 293 293 293 293 293
323 322 325 328 321 319 321 322 323 320 316 315 317 316 316 316 314 316 316 316 316 316 318 317 317 318 319 322 312 305 306 306 305 305 305 305 305 306 307 308 309 310 310 311 312 313 313 312 311 312 311 308 306 304 302 302 302 301 299 298 297 297 296 296 296 296 296 296 296 295 295 296 296 296 296 296 296 296 296 295 295 294 294 294 293 293 293 293 293 293 293 293 293 293 293 293 293
321 323 323 324 321 319 319 320 321 319 316 316 316 315 314 314 315 317 317 316 315 315 318 319 317 313 312 314 311 309 309 307 305 305 305 305 305 305 306 306 307 308 308 309 310 311 311 311 310 311 310 308 305 304 302 302 301 299 298 297 297 296 296 296 296 296 296 295 295 295 296 296 296 296 296 296 296 296 296 295 295 294 294 294 293 293 293 293 293 293 293 293 293 293 293 293 293
320 322 323 322 321 320 319 318 319 319 317 317 315 313 313 315 315 315 315 315 314 313 314 317 314 308 309 315 315 314 311 307 306 305 306 306 306 306 306 306 306 306 306 306 307 308 309 310 309 309 309 307 305 304 302 301 300 299 297 296 297 296 296 296 296 296 296 295 295 295 296 296 296 296 296 296 296 296 295 295 294 294 294 294 294 293 293 293 293 293 293 293 293 293 293 293 293
321 321 322 321 320 321 320 317 317 318 317 315 313 314 315 315 313 313 314 313 313 313 313 315 313 310 313 318 317 313 310 307 305 305 306 306 306 307 306 305 305 304 304 305 305 306 307 308 308 307 307 306 304 302 301 301 299 298 297 296 296 296 296 296 296 296 296 295 295 295 295 296 296 296 297 296 296 295 295 295 294 294 294 294 294 294 294 294 294 294 293 293 293 293 293 293 293
323 321 321 321 319 319 318 316 316 316 317 314 313 316 315 313 313 313 314 314 313 314 314 315 313 313 315 315 314 311 311 309 306 305 305 305 306 305 305 305 304 304 304 305 304 304 305 305 306 306 306 305 304 301 300 300 299 298 296 296 296 296 296 296 296 296 296 295 295 295 295 296 296 296 297 296 296 295 294 294 294 294 294 294 294 294 294 294 294 294 294 293 293 293 293 293 292
320 320 320 319 317 316 315 314 314 314 316 316 314 316 315 313 313 314 314 315 315 316 316 315 313 313 313 312 312 309 310 309 306 306 306 305 305 304 305 305 304 305 304 304 304 304 304 304 305 305 305 304 303 301 300 298 298 297 296 296 296 296 296 296 296 296 296 295 295 295 295 295 296 296 296 296 296 295 295 294 294 294 295 295 294 294 295 295 295 294 293 293 293 293 293 293 292
315 315 317 317 315 315 314 313 314 313 315 317 314 314 315 312 312 314 314 315 315 315 316 315 314 315 312 311 310 309 308 307 306 306 306 305 304 305 305 305 305 305 305 305 305 304 303 304 304 305 304 303 302 300 299 298 297 297 296 296 296 296 296 296 296 296 295 295 295 295 295 295 295 295 295 296 295 295 295 295 295 294 295 295 294 294 295 295 294 294 293 293 293 292 292 292 292
313 314 315 316 315 314 314 314 315 314 315 316 314 313 315 314 314 315 313 313 313 314 316 315 314 314 312 310 309 309 307 305 305 305 306 306 306 306 305 306 306 305 306 306 304 304 304 304 304 304 303 302 301 300 298 298 297 296 296 296 296 296 296 296 296 296 295 295 295 295 295 294 294 294 294 295 295 295 295 295 295 294 294 295 294 294 294 294 294 293 293 292 292 292 292 292 292
314 315 314 314 315 316 315 314 316 314 314 316 313 312 315 316 315 313 313 312 312 314 315 314 314 313 312 310 309 309 307 305 305 305 306 307 307 307 307 307 307 306 306 305 304 305 304 304 303 303 303 302 301 300 299 298 297 297 296 296 296 296 296 296 296 296 295 295 295 294 295 294 294 294 294 294 294 294 294 295 294 294 294 294 294 294 294 294 294 293 293 292 292 292 292 292 292
316 313 314 316 315 317 315 313 314 313 314 316 313 313 314 314 314 313 314 313 313 315 315 314 313 313 312 311 310 309 308 306 305 305 306 307 307 307 307 308 307 306 306 305 306 306 305 304 303 303 302 302 302 301 299 298 298 297 297 296 296 296 296 296 295 295 295 295 294 294 295 295 294 293 293 293 293 294 294 294 294 294 294 294 294 294 294 294 293 293 292 292 292 292 292 292 292
321 314 316 319 316 316 315 313 314 313 313 312 313 315 314 313 314 313 313 313 314 315 315 315 314 313 312 311 310 309 308 306 304 304 306 307 307 307 307 308 307 307 307 306 306 305 304 304 303 302 302 302 302 301 300 299 299 298 298 297 296 296 295 295 295 295 295 294 294 294 294 295 295 293 293 293 293 293 293 294 294 294 294 294 294 293 293 293 293 292 292 292 291 292 292 292 292
324 315 315 320 317 315 315 315 316 314 313 311 312 315 314 314 315 314 313 312 313 314 315 314 313 313 312 310 310 309 308 307 306 305 305 306 307 307 308 307 307 307 307 307 306 305 305 304 303 302 302 302 302 301 301 300 299 299 298 297 296 295 295 295 295 295 295 294 294 294 294 295 295 294 292 292 293 293 293 293 293 293 293 293 293 293 293 293 292 292 292 291 291 291 291 291 291
319 315 316 319 317 314 314 316 317 314 313 313 313 312 312 313 314 314 313 312 312 313 314 313 312 311 310 310 309 309 308 308 309 307 305 306 306 307 307 307 308 307 307 307 307 306 306 304 303 303 302 302 302 301 301 300 300 299 298 297 296 295 295 295 295 294 294 294 293 293 294 295 295 294 293 292 292 292 293 293 293 293 293 293 293 293 292 292 292 291 291 291 291 290 291 291 291
316 317 317 318 316 314 314 314 314 314 313 313 314 312 312 312 311 312 312 312 312 312 312 311 311 310 310 310 309 309 309 309 309 308 307 307 307 307 307 307 307 307 307 307 306 306 305 304 303 303 302 301 301 301 300 300 299 299 298 297 296 295 295 295 295 295 294 294 294 293 294 295 295 294 293 292 292 292 292 292 292 292 293 293 292 292 292 292 292 291 291 291 291 290 291 291 291
314 315 314 314 314 312 313 312 312 312 311 311 312 311 311 311 311 311 311 311 311 311 311 310 310 310 310 310 310 310 310 310 310 308 308 308 308 308 307 307 307 307 307 306 306 305 304 304 303 302 302 301 300 300 299 299 298 298 298 297 297 296 296 296 296 296 296 295 295 294 293 294 294 294 293 291 291 292 292 292 292 292 292 292 292 293 293 292 292 291 291 291 291 291 291 291 290
312 313 313 313 312 311 311 310 310 310 310 311 312 311 310 311 311 311 311 311 312 311 311 311 311 310 310 310 311 310 310 310 310 309 309 308 308 308 307 307 307 306 306 305 305 305 304 304 303 302 302 301 300 300 299 299 298 298 297 297 297 296 297 297 297 297 297 296 296 295 294 293 294 294 292 291 291 291 291 291 292 292 292 292 292 293 292 292 291 291 291 291 290 290 291 290 291
312 313 313 313 312 311 311 311 311 310 310 312 313 312 310 311 311 311 311 311 311 312 312 312 312 311 312 311 311 311 311 311 311 310 309 308 308 308 307 307 306 306 306 306 305 305 305 304 303 303 301 300 300 300 300 299 299 299 298 298 297 297 297 297 297 297 298 297 296 296 294 293 293 293 292 291 291 291 291 291 291 291 292 292 292 291 291 291 291 291 291 291 290 290 290 290 290
314 314 313 313 312 311 311 311 311 311 312 315 315 312 310 311 311 311 311 311 311 312 312 312 312 312 312 312 312 312 311 312 311 311 310 307 306 307 306 306 306 306 306 306 306 305 304 303 302 302 301 300 300 300 300 299 299 299 299 298 297 297 297 297 297 297 297 297 296 297 296 294 293 292 292 291 291 291 291 291 291 291 292 292 291 291 290 290 291 291 290 291 290 290 290 290 289
313 313 313 313 312 312 313 313 314 312 312 315 314 311 310 311 311 311 311 311 311 312 312 312 312 313 312 312 313 312 312 312 311 312 311 308 307 305 304 305 305 305 305 305 304 304 303 303 302 302 301 300 300 299 300 299 299 298 298 298 297 297 296 296 296 296 296 296 297 297 296 295 293 292 291 291 291 290 291 291 291 291 291 291 291 291 291 291 291 291 290 290 290 290 290 289 289
313 314 313 313 312 312 312 313 315 314 315 318 314 312 313 314 313 312 311 310 310 311 311 311 312 312 312 312 312 312 312 312 311 312 311 311 311 306 302 304 305 304 305 305 304 304 303 303 302 301 301 300 300 299 299 299 298 297 297 297 296 296 296 295 295 295 295 296 296 296 296 295 294 292 291 291 291 290 290 290 291 291 291 291 291 291 292 292 291 291 291 291 290 290 290 289 288
313 315 314 312 312 312 312 313 314 316 321 320 315 315 317 318 318 315 313 312 311 311 310 310 311 311 311 311 311 311 311 311 311 311 311 311 313 307 302 303 303 303 304 305 305 305 304 303 302 301 300 300 299 299 299 298 298 297 297 296 295 295 294 294 295 295 295 295 295 295 295 295 294 293 291 291 291 290 290 290 290 290 290 291 291 291 291 291 291 291 290 291 290 290 290 289 288
313 319 320 313 312 313 315 314 314 319 323 317 314 319 319 318 319 317 316 315 315 314 312 311 311 310 311 312 311 311 311 311 311 311 311 311 311 310 305 302 302 303 304 305 304 304 303 302 301 300 300 299 299 299 298 298 298 297 297 296 296 296 295 295 295 295 295 295 295 295 295 295 294 294 292 291 291 290 290 290 290 290 290 290 291 290 291 291 291 290 290 290 289 289 289 289 288
316 321 323 319 316 317 316 314 315 320 321 316 316 319 319 318 317 318 318 316 315 314 313 312 311 311 313 313 313 312 312 311 312 313 312 311 311 310 306 302 303 304 304 304 304 304 303 302 301 300 300 299 299 299 298 298 298 297 297 297 296 296 296 296 295 295 295 294 294 294 294 294 294 294 293 291 291 290 290 290 289 289 289 290 290 290 290 290 290 290 289 289 288 288 289 289 288
318 317 317 319 318 318 317 317 318 319 318 317 316 316 319 319 316 317 315 314 317 316 314 313 312 313 313 313 314 313 312 311 311 312 311 312 310 307 305 303 304 305 304 304 304 304 303 302 301 300 299 299 299 298 298 298 298 297 297 296 296 296 297 296 295 295 294 294 294 293 293 294 294 293 293 292 291 290 290 289 289 289 289 289 289 290 290 289 289 289 289 289 288 288 288 288 288
317 316 317 320 321 321 320 320 319 319 319 319 317 316 319 319 317 320 316 315 321 320 315 313 312 314 313 313 314 314 313 313 312 311 310 311 307 304 305 305 304 304 303 304 304 303 302 301 301 300 299 299 298 298 298 298 298 297 297 297 296 296 296 296 295 295 294 294 293 293 293 293 293 293 293 292 291 290 290 289 289 289 289 289 289 289 289 289 289 288 289 289 289 288 287 287 287
315 318 323 324 324 324 326 325 319 318 320 319 320 319 317 318 319 321 320 319 321 319 317 316 315 318 317 314 314 313 313 314 313 312 310 310 305 302 303 303 303 303 303 303 302 302 302 301 300 299 299 298 298 298 298 298 297 297 297 297 296 296 296 295 295 294 294 293 293 293 292 292 293 293 293 292 292 291 290 290 289 289 288 288 288 288 288 288 288 288 288 288 288 288 288 287 286
314 320 324 322 324 324 325 326 321 319 321 319 321 318 316 318 318 318 319 319 317 316 319 322 323 324 323 321 317 313 313 312 312 311 311 312 311 308 304 301 301 302 301 301 301 301 301 300 299 298 298 298 298 298 297 297 297 297 297 297 296 296 296 295 295 294 294 293 293 292 292 292 292 292 292 292 292 291 291 290 289 289 288 288 288 288 288 288 288 287 287 288 288 287 287 287 286
314 320 320 318 322 321 321 325 322 321 320 316 317 316 315 316 316 316 318 318 319 317 317 321 324 324 323 322 320 315 313 311 310 311 312 315 318 319 312 302 299 300 300 300 300 300 300 299 299 298 298 298 297 297 297 297 297 297 297 297 297 296 296 296 295 295 294 293 293 292 292 291 291 291 291 291 292 292 291 291 290 289 288 288 288 287 287 287 287 287 287 287 287 287 287 287 287
315 318 318 318 320 319 322 327 323 321 320 316 315 317 318 318 319 320 317 315 318 317 315 318 319 318 317 316 315 313 311 311 310 311 314 316 319 322 315 301 297 299 299 299 299 299 299 299 298 298 298 297 297 297 297 297 297 297 297 296 296 296 296 296 295 295 294 293 293 292 292 292 291 291 291 292 292 291 291 291 290 290 289 288 288 287 287 287 287 287 287 287 287 287 287 287 286
313 317 320 318 320 323 325 326 324 321 321 316 313 317 323 321 320 321 318 316 320 320 318 317 315 314 313 313 314 315 316 314 313 313 313 314 318 318 309 299 298 299 299 299 299 299 299 298 298 298 298 297 297 297 297 297 297 297 296 296 296 296 296 296 295 295 294 294 293 293 292 292 292 292 292 292 292 291 291 291 291 290 289 288 288 287 287 286 286 286 286 287 287 287 287 287 286
315 319 321 316 318 322 320 321 322 319 320 317 315 320 324 319 315 317 318 318 320 321 317 314 314 314 314 317 319 320 320 317 315 315 313 312 316 312 302 299 300 299 299 299 298 298 298 298 298 298 298 297 297 297 297 297 297 296 296 296 296 296 296 295 295 295 295 294 294 293 293 293 292 292 292 291 291 291 291 291 291 290 289 288 288 287 287 286 286 286 286 286 287 287 287 286 286
315 317 319 316 318 318 316 319 319 316 318 318 317 320 320 318 317 317 318 316 314 316 317 315 317 319 319 320 321 320 319 318 315 314 313 312 315 311 301 299 301 299 299 299 298 299 298 298 298 298 297 297 297 297 297 297 296 296 296 296 296 296 295 295 295 295 295 294 294 293 293 293 292 292 292 291 291 290 290 290 290 290 289 288 288 287 287 286 286 286 286 286 287 286 286 286 285
316 318 317 315 317 318 317 319 319 317 319 318 317 319 317 318 319 317 320 321 316 317 319 317 318 320 319 320 319 317 316 315 314 314 314 314 316 315 304 300 302 301 301 300 299 299 298 298 298 297 297 298 297 297 297 296 296 296 296 296 296 296 295 295 295 295 294 293 293 293 293 292 292 292 291 291 291 290 290 290 290 290 289 288 288 287 286 286 286 286 286 286 286 286 285 285 285
313 317 315 315 319 319 318 319 320 318 319 319 318 318 317 317 317 316 319 321 319 318 318 317 317 318 318 318 317 315 314 314 315 316 317 316 317 316 306 301 303 303 302 301 300 299 298 298 298 297 297 297 297 297 296 296 296 296 296 296 296 296 295 295 295 295 294 293 293 293 293 292 292 292 291 291 291 290 290 289 289 289 288 288 287 287 286 286 285 285 285 285 285 285 285 285 284
310 312 313 314 317 318 318 320 320 319 319 320 320 320 318 317 316 317 317 318 319 319 318 320 320 317 316 316 315 315 315 315 316 317 317 317 317 313 306 303 303 303 303 302 300 300 299 298 298 298 297 297 297 297 297 297 296 296 296 296 296 296 295 295 295 294 294 294 294 293 293 292 292 291 291 291 291 290 290 289 288 288 287 287 287 286 286 285 285 285 285 285 285 285 284 284 283
314 313 313 312 314 317 318 317 318 319 318 319 321 321 321 321 320 317 317 319 321 320 319 321 321 317 316 316 316 316 316 316 316 316 315 315 314 311 305 304 304 303 303 302 300 300 298 298 298 297 297 297 297 297 297 297 297 296 296 296 296 296 295 295 295 294 294 294 293 293 293 292 292 291 291 291 290 290 289 289 288 287 287 286 286 286 286 285 284 284 284 285 284 284 284 283 283
318 316 315 314 314 317 317 316 318 318 317 318 321 320 321 324 323 317 315 318 320 318 319 320 319 318 318 318 316 315 314 314 313 313 312 312 313 310 304 302 303 303 302 301 300 300 299 298 298 297 297 297 297 297 297 297 296 296 296 296 296 295 295 295 294 294 294 293 293 293 292 292 291 291 291 291 290 290 289 289 288 287 287 286 286 285 285 285 284 284 284 284 284 284 283 282 282
Wind_Speed
1 1 1 1 2 0 2 4 2 3 2 1 3 1 4 5 2 2 4 2 0 3 3 1 2 5 3 3 7 6 5 7 7 6 4 3 8 23 24 16 22 29 29 28 26 24 23 21 20 18 17 18 17 17 17 16 16 15 15 14 14 13 13 12 12 12 11 10 10 9 8 8 8 7 8 7 7 6 6 7 8 8 7 6 6 7 8 7 5 4 3 1 1 1 1 1 3
2 1 2 2 3 2 1 3 2 4 4 3 4 3 4 3 1 5 8 6 5 4 1 4 3 3 3 2 3 3 3 4 5 4 3 5 11 20 22 18 25 29 29 29 27 27 25 24 22 21 19 18 17 17 17 16 16 15 15 14 14 14 13 13 11 11 10 9 8 8 7 7 7 6 7 7 7 6 6 6 7 8 7 6 6 6 6 4 3 2 2 2 2 2 2 3 4
1 1 3 1 3 3 1 4 2 1 2 3 5 4 3 2 5 8 9 8 7 3 2 2 2 2 4 3 0 2 4 3 3 3 1 9 10 18 26 21 25 27 28 29 27 27 26 24 22 21 19 18 17 16 17 16 15 14 15 14 14 13 12 12 11 11 10 9 9 8 7 7 7 7 7 7 7 7 7 6 7 7 7 6 4 5 5 3 2 3 4 3 3 4 4 4 4
2 1 3 1 2 4 4 3 1 3 1 3 4 6 3 4 8 8 8 7 6 1 2 0 1 1 3 2 2 0 4 4 4 6 2 13 14 20 30 23 25 26 27 28 26 26 25 24 22 20 18 18 18 16 16 16 15 14 15 16 15 14 14 13 12 12 11 11 10 9 9 8 8 8 8 8 8 7 7 7 7 7 6 6 6 6 5 5 4 4 4 4 5 5 5 4 5
2 2 3 2 2 1 3 2 2 3 4 4 2 6 5 7 7 7 6 6 4 1 1 1 1 2 1 3 3 1 5 2 5 10 5 13 16 22 31 25 25 26 26 27 25 25 24 24 23 20 18 18 19 17 17 17 17 16 16 16 16 16 15 15 14 13 13 12 12 11 11 10 9 9 10 9 8 8 8 8 8 8 6 6 6 6 5 5 5 4 4 4 4 4 4 4 5
1 2 5 5 3 1 3 1 2 2 6 5 3 7 7 7 6 6 5 6 4 4 4 2 2 1 1 3 2 3 5 2 3 11 8 10 17 24 31 27 26 26 25 25 24 24 24 24 23 20 18 18 19 18 18 18 19 18 17 17 17 17 16 16 16 15 15 14 13 13 12 11 10 10 10 9 8 8 8 8 9 9 8 6 6 5 5 4 4 3 3 3 2 2 2 2 3
2 1 4 4 2 2 3 3 4 4 5 6 5 7 9 7 4 4 3 3 2 4 3 4 2 2 3 2 2 5 6 5 2 7 9 11 19 26 31 28 27 25 24 23 23 24 24 24 22 18 18 19 19 19 18 19 20 20 20 19 18 18 17 17 16 16 16 15 14 13 12 11 10 10 10 9 8 8 8 9 9 9 8 7 6 5 5 4 4 3 2 2 2 2 1 1 0
3 1 1 3 1 2 3 2 4 4 4 5 5 7 9 7 3 5 4 2 2 3 2 3 2 1 5 0 2 5 6 9 4 4 7 13 22 28 31 30 28 26 24 24 23 24 25 25 21 17 19 19 19 19 19 19 20 20 20 19 18 17 17 16 15 15 14 14 13 13 12 12 12 11 10 9 8 8 8 8 9 9 9 8 7 6 5 5 4 4 4 4 4 4 4 3 2
4 2 0 2 2 1 0 3 4 4 5 6 6 8 9 5 5 6 6 4 3 2 4 4 4 3 4 1 4 4 4 11 8 6 8 17 25 29 31 31 30 29 26 25 24 24 25 25 21 17 18 19 19 19 19 19 18 18 19 18 18 17 16 15 14 14 14 14 14 14 13 13 12 11 10 9 9 9 9 9 9 9 9 9 8 7 7 6 6 6 5 5 5 5 4 4 3
4 3 1 1 2 1 4 3 3 4 6 6 7 10 9 4 6 6 6 6 4 1 5 3 4 4 2 2 6 3 3 10 11 9 11 21 26 29 31 31 31 30 28 27 26 24 24 24 22 19 19 18 18 18 18 18 17 17 17 18 17 17 16 15 16 15 15 15 15 15 14 13 12 11 11 10 10 10 10 10 10 10 10 10 9 8 8 7 7 7 7 6 5 4 4 4 3
2 4 2 2 2 2 4 4 4 5 6 5 7 11 9 6 6 3 3 5 4 2 3 3 2 4 1 3 5 2 4 9 14 12 16 25 27 29 30 30 29 28 29 28 27 25 24 24 23 21 20 19 18 17 17 17 17 17 17 17 17 17 17 17 17 16 15 15 15 14 13 13 12 12 12 12 12 11 11 11 11 10 10 9 9 8 8 7 7 6 6 5 5 4 4 3 3
2 3 3 3 2 3 4 4 5 6 7 5 6 8 3 7 6 4 6 5 3 3 5 4 3 4 2 5 4 3 4 11 15 13 20 27 28 29 29 29 28 27 27 27 27 26 24 25 25 23 22 21 19 18 18 17 17 17 17 17 18 18 18 17 17 16 16 15 15 15 14 14 14 14 13 13 13 12 12 11 11 10 9 9 8 8 7 7 6 5 5 5 4 4 3 3 3
3 1 4 2 3 2 2 3 5 5 7 4 5 4 3 8 6 7 7 4 3 2 7 8 4 2 3 4 4 5 5 13 16 15 23 28 28 29 28 28 27 27 26 26 26 26 25 25 26 24 23 22 21 21 20 19 18 18 19 19 19 19 18 18 17 17 16 16 16 16 16 16 15 15 15 14 14 13 12 11 10 10 9 8 8 7 6 6 5 5 4 4 4 3 3 2 2
2 3 4 1 1 1 2 2 5 3 5 6 4 2 3 3 5 5 6 4 6 6 6 6 6 1 3 3 5 5 5 15 18 20 26 28 28 28 27 27 27 27 26 26 26 26 26 26 27 25 24 23 23 23 22 22 21 21 21 21 20 20 19 18 18 17 17 18 18 18 17 17 17 16 16 15 14 13 12 11 10 10 9 9 8 7 6 5 5 4 3 3 3 2 2 1 1
2 2 4 0 2 2 3 3 3 2 4 6 3 1 2 4 2 4 5 7 8 5 1 2 5 2 3 3 5 6 5 16 21 23 28 27 26 26 26 27 26 27 27 27 26 26 27 27 28 26 25 25 25 25 24 24 23 23 22 22 21 20 20 19 19 19 19 20 19 19 19 18 18 17 16 15 14 13 12 12 11 11 10 9 8 7 7 6 5 5 4 4 3 3 3 2 2
3 3 4 1 2 2 3 4 2 2 5 6 4 1 1 6 2 2 5 5 4 3 0 3 5 2 4 7 6 7 4 19 24 24 27 25 24 24 25 26 27 27 27 28 28 28 28 28 29 28 28 27 27 27 26 25 25 24 23 22 21 21 21 20 20 20 21 20 20 19 19 18 18 17 16 14 14 13 13 13 12 12 11 11 10 9 8 7 6 6 5 5 5 5 4 4 4
3 4 3 2 2 2 4 4 3 3 5 6 6 1 2 7 3 2 2 2 3 3 2 5 3 1 4 4 5 6 8 24 25 25 25 23 23 22 23 25 27 28 29 30 30 30 29 30 30 30 30 30 29 29 28 27 26 24 23 22 21 21 21 21 22 22 21 21 20 20 19 18 17 17 16 15 15 15 14 14 13 13 12 12 11 10 9 8 8 7 6 6 5 5 5 4 4
2 3 2 3 3 4 6 7 6 3 4 5 5 1 5 5 5 1 2 2 4 4 4 5 6 5 3 3 5 2 18 26 26 27 25 22 21 20 23 27 29 31 32 33 33 33 32 32 32 32 32 32 31 30 29 28 27 25 24 23 22 22 22 22 22 22 22 22 21 21 20 19 18 18 17 16 16 16 15 15 14 14 13 13 12 11 10 9 9 8 7 6 6 6 5 5 4
2 3 2 4 6 5 6 7 5 4 4 6 6 3 5 6 4 1 3 7 4 5 6 4 8 9 5 2 3 12 22 25 27 28 25 24 24 24 24 26 30 32 35 38 38 37 35 35 34 35 34 34 33 32 31 29 28 26 25 24 23 23 23 23 22 22 23 23 22 21 20 20 19 19 18 18 17 17 17 16 15 14 13 12 11 11 10 9 9 8 8 7 7 7 6 5 5
2 3 2 6 7 6 6 7 7 7 4 6 8 2 3 6 4 1 4 8 7 7 7 4 7 13 10 3 7 15 20 22 25 26 25 26 28 28 27 28 32 36 40 41 40 39 38 37 37 37 36 35 34 33 32 30 29 28 26 25 24 24 24 23 23 23 24 24 23 22 21 21 20 20 19 19 18 18 17 16 15 14 13 12 11 10 10 9 8 8 8 7 7 7 6 6 5
2 4 5 7 4 4 8 8 9 9 4 5 5 3 4 7 3 3 4 7 10 9 8 10 12 13 12 6 8 15 17 18 22 23 24 25 27 28 30 33 36 38 38 36 37 40 40 40 39 38 38 37 36 35 34 32 31 29 28 27 26 26 25 25 25 25 25 25 24 23 23 22 22 21 21 20 19 19 18 16 15 14 13 12 11 10 9 9 8 8 7 7 6 6 5 5 5
2 5 8 7 4 4 9 7 7 6 3 4 4 5 7 4 2 5 6 7 13 8 8 13 14 13 12 9 10 12 13 15 18 21 22 24 27 29 31 32 33 31 31 34 39 42 42 41 40 40 39 38 37 36 35 33 32 31 30 29 28 27 27 27 27 27 26 26 26 25 25 24 24 23 22 22 21 20 18 16 15 14 13 12 11 10 9 9 8 7 7 6 5 5 5 5 5
3 6 6 7 7 7 7 4 5 4 2 5 4 5 4 5 9 6 9 13 18 11 6 10 12 12 10 8 10 11 13 14 16 22 26 28 29 32 34 33 34 34 34 38 40 41 42 42 42 41 41 40 39 37 36 35 34 32 31 30 30 29 29 29 29 29 28 27 27 27 27 26 26 25 24 24 22 20 18 17 16 14 13 12 11 10 9 9 8 7 6 5 5 4 4 4 4
4 6 5 6 7 9 9 6 6 4 6 8 3 5 6 9 10 1 6 16 19 14 7 8 10 8 6 7 11 14 15 16 21 29 33 34 36 39 39 36 36 34 34 36 37 38 42 44 43 43 43 42 41 39 38 37 35 33 32 32 31 31 31 31 31 30 30 29 29 28 28 28 27 27 26 25 22 20 19 18 16 15 14 12 12 11 9 8 7 6 5 4 4 4 3 4 4
5 8 5 3 5 8 10 7 7 7 8 6 3 8 12 13 7 6 14 20 18 13 9 10 10 6 7 9 12 13 14 16 21 27 30 33 35 36 34 33 31 31 34 37 37 38 42 44 44 45 45 44 43 41 40 39 37 35 34 34 33 32 33 32 31 31 31 31 31 30 30 29 29 28 27 25 23 22 20 19 18 16 15 13 12 11 9 8 7 5 4 4 4 3 3 3 4
7 8 5 4 6 8 8 7 7 7 6 4 3 12 15 8 3 10 19 20 15 10 9 10 8 8 8 10 11 13 14 15 18 23 28 32 30 29 32 32 31 35 39 39 38 40 41 42 44 47 47 46 45 43 42 41 39 38 37 36 35 35 34 33 32 32 32 32 33 32 31 30 29 28 27 25 24 23 22 20 18 17 15 13 12 11 9 7 6 5 4 4 3 3 3 3 4
5 5 6 7 8 9 6 6 6 4 5 7 8 14 16 4 1 10 17 11 6 4 7 6 6 10 10 9 10 11 13 17 22 23 22 24 25 29 32 32 36 39 37 37 40 41 39 41 44 47 47 47 46 45 45 43 41 40 39 38 37 36 36 35 34 34 34 34 34 34 33 31 29 28 27 25 25 24 23 21 19 18 16 14 12 11 9 7 6 5 4 4 3 3 3 3 3
1 1 7 9 7 10 9 8 6 4 5 9 11 11 13 3 3 14 20 9 1 6 10 7 6 10 10 9 9 8 10 19 23 19 17 21 27 33 33 36 41 40 38 41 43 39 39 41 43 45 47 47 46 47 46 45 44 42 41 40 39 38 37 37 36 36 36 36 35 35 34 32 30 28 27 26 25 25 24 22 20 19 16 15 13 11 9 8 7 5 5 4 4 3 3 2 3
2 2 6 12 7 11 15 8 5 6 4 6 9 5 9 6 10 17 20 11 3 6 12 11 9 9 9 9 8 8 11 16 16 17 24 30 34 36 37 43 44 41 43 43 39 38 41 42 43 44 45 46 47 48 47 46 45 44 43 42 41 40 39 39 39 38 38 37 36 36 35 33 31 29 28 27 26 25 24 22 21 19 17 15 14 12 10 8 7 6 5 4 4 3 3 2 3
5 2 1 9 8 9 10 2 1 4 4 6 7 3 7 11 18 17 14 10 5 7 12 12 10 8 8 8 8 9 11 12 14 23 32 34 36 36 39 43 41 41 41 37 37 41 43 42 42 43 44 47 48 48 48 47 46 45 44 43 42 41 41 41 40 40 39 38 38 37 36 33 32 30 29 28 26 25 24 23 21 20 18 16 14 13 11 9 8 6 5 5 4 3 2 2 2
4 3 1 3 3 8 8 2 1 3 4 7 6 5 8 13 21 17 9 6 6 8 12 12 10 9 8 8 8 10 11 12 19 28 33 36 37 36 39 41 39 40 38 36 42 44 43 42 43 43 45 48 48 49 49 49 48 47 46 45 44 43 42 42 41 41 41 40 39 38 36 35 33 32 30 29 27 26 25 24 22 21 19 17 15 13 11 10 8 7 6 5 4 3 2 1 1
2 2 4 2 2 7 12 8 6 8 5 4 6 6 8 11 20 18 6 3 6 8 12 11 11 11 10 9 8 10 11 12 19 26 32 36 37 36 39 40 37 40 41 42 44 41 41 43 43 44 45 47 49 50 50 49 48 47 47 46 45 45 44 43 43 43 42 41 40 39 37 36 35 33 32 30 29 27 26 25 23 21 19 18 16 14 12 10 9 8 7 5 4 3 2 0 1
2 2 5 4 5 4 8 11 7 10 4 2 6 7 7 8 14 15 6 3 6 7 11 12 12 12 11 10 8 9 10 10 13 20 29 35 37 39 40 39 39 41 44 44 43 41 42 43 44 45 46 48 50 50 49 48 48 47 47 46 45 45 45 45 44 43 43 42 41 40 39 38 36 34 33 31 30 28 27 25 23 22 20 18 17 15 13 11 10 9 8 7 4 3 1 1 2
3 1 4 5 7 5 4 9 7 4 6 6 8 9 11 11 12 14 12 7 5 7 12 13 11 11 9 9 10 10 10 11 11 16 26 32 36 39 39 39 40 41 42 43 43 44 44 44 45 46 47 47 48 48 48 47 46 46 45 45 45 45 45 45 45 44 44 43 42 42 40 39 38 36 34 32 31 29 27 26 25 23 21 19 18 16 14 13 11 10 8 7 5 3 1 2 4
6 5 5 4 5 7 7 8 7 3 5 6 5 9 14 15 13 14 17 15 9 11 14 13 11 11 11 10 11 12 11 13 15 18 24 28 32 36 37 39 39 39 41 42 42 43 42 42 44 45 45 45 46 46 45 44 43 43 42 42 42 43 44 44 44 45 45 43 43 43 42 40 39 37 36 34 32 30 28 27 26 24 23 21 19 18 16 15 13 11 9 7 6 3 0 2 5
10 8 6 6 7 7 8 11 11 7 7 6 8 14 16 15 15 15 17 17 14 15 14 12 11 11 12 13 13 13 14 16 19 23 24 25 29 32 33 36 37 38 39 39 39 40 40 41 42 43 45 45 44 42 41 41 40 39 39 39 40 41 43 44 45 46 45 45 45 44 43 42 41 39 37 36 34 32 30 29 28 26 24 23 21 20 18 16 14 12 10 8 6 4 1 1 5
5 5 6 8 8 9 10 14 13 3 4 8 11 17 17 15 16 16 16 15 15 18 18 15 13 12 13 15 16 15 16 17 19 24 25 25 27 28 29 32 34 34 35 36 38 40 42 43 43 45 46 45 44 44 44 44 43 41 39 40 42 42 43 44 45 47 47 47 46 45 44 43 42 41 39 38 36 34 32 30 29 28 26 24 22 20 18 16 14 13 11 9 6 4 2 1 4
5 6 8 7 7 12 13 13 14 3 2 8 9 16 19 15 15 14 14 14 15 20 19 17 16 14 14 16 19 18 15 15 15 19 22 22 22 23 25 28 31 33 35 38 40 43 45 45 46 46 45 45 47 49 48 48 49 48 46 46 46 45 46 47 48 49 48 47 46 45 45 44 43 42 41 39 37 35 34 33 31 30 28 25 22 20 18 17 16 15 13 11 8 5 3 0 3
7 6 6 7 6 11 11 10 11 3 2 7 9 14 16 13 16 15 16 16 16 18 19 18 17 15 16 16 18 18 16 14 14 16 18 16 16 20 23 26 32 35 37 40 43 43 43 44 45 45 45 47 49 50 50 49 50 49 47 46 45 43 43 46 46 46 46 45 45 45 44 44 44 43 42 40 39 37 35 34 33 31 29 27 25 23 21 20 18 16 14 12 10 8 5 2 2
6 6 5 7 8 9 8 6 6 3 3 7 10 14 14 11 15 15 18 19 15 16 19 19 16 16 19 19 17 16 16 16 16 16 16 11 11 16 21 26 31 33 34 37 39 39 41 44 45 45 45 47 48 48 48 47 44 43 40 38 38 37 36 40 39 38 41 43 44 45 45 45 44 43 43 41 40 38 36 35 33 32 31 28 27 26 24 22 20 18 16 15 12 11 8 5 3
8 8 7 11 13 12 10 5 6 6 5 6 7 14 12 8 12 13 13 14 13 14 17 18 17 18 19 18 15 15 16 17 17 16 17 11 8 14 21 26 29 31 34 37 39 41 43 45 46 45 45 45 45 46 45 42 38 37 35 29 29 30 28 31 33 34 38 41 44 46 46 46 45 44 43 42 41 39 37 36 34 33 32 30 29 27 25 23 21 20 18 16 14 12 11 8 7
8 6 12 18 16 12 11 7 7 6 5 4 5 9 10 6 11 11 8 7 10 11 13 17 20 18 15 13 14 15 15 15 15 16 17 13 10 12 18 24 26 29 34 38 40 42 43 43 43 43 42 43 43 44 44 42 40 39 38 33 30 29 27 30 37 39 40 43 45 45 45 45 45 44 44 43 41 40 38 37 35 34 33 32 30 27 25 23 22 21 19 18 15 13 13 11 10
8 5 12 16 12 10 11 8 4 1 4 4 3 1 10 7 7 10 8 7 11 11 10 16 18 14 11 9 11 13 13 12 12 13 15 15 13 10 13 19 24 29 34 35 35 37 38 38 39 40 41 41 42 42 44 43 41 41 42 40 38 36 34 36 42 42 42 44 43 43 44 45 45 45 44 43 42 41 39 38 37 35 34 33 31 29 27 25 23 22 20 18 16 14 14 13 13
7 5 7 9 9 10 8 5 4 4 3 4 1 5 6 12 5 7 9 9 10 12 12 16 15 12 11 10 11 14 13 11 10 12 14 15 12 8 10 17 24 30 31 30 31 34 37 37 38 40 40 40 41 42 45 46 45 44 43 41 39 40 40 39 39 38 38 41 41 41 43 44 45 45 45 44 43 42 41 39 38 36 35 33 32 30 28 26 24 23 21 19 18 16 15 13 14
6 2 4 6 6 6 5 5 5 1 3 3 3 5 2 13 7 2 3 7 8 12 15 16 14 12 12 10 12 14 13 12 12 12 14 12 8 8 13 18 24 28 27 28 33 35 36 36 36 38 39 40 41 44 46 48 47 46 45 43 41 41 41 36 34 35 35 37 39 40 41 43 44 45 45 45 44 43 42 41 39 37 36 35 33 31 29 27 26 25 24 22 20 18 16 14 14
4 5 4 4 4 3 4 4 3 2 4 5 7 6 3 12 8 4 3 3 7 11 12 12 10 9 11 10 11 12 10 12 12 11 10 9 8 10 14 16 19 22 25 27 31 32 34 35 36 39 41 41 42 44 47 48 47 45 44 45 42 40 37 33 31 32 34 35 37 39 40 42 43 44 45 45 44 44 43 42 40 39 38 36 34 32 30 29 27 26 25 23 20 19 18 15 14
2 5 5 6 4 4 4 1 3 1 8 6 12 13 7 8 5 4 3 4 6 8 6 7 7 8 11 11 10 10 9 10 11 9 8 7 8 9 9 12 14 17 21 24 26 30 33 35 37 39 41 41 42 45 46 48 47 46 46 46 43 40 36 33 31 32 35 36 38 40 40 41 43 45 46 45 45 45 44 43 41 40 39 37 35 34 32 31 29 27 25 22 21 19 18 17 15
4 3 3 3 4 4 4 4 4 1 9 6 12 13 10 9 6 2 5 6 5 6 6 7 8 8 10 9 9 9 8 8 8 9 9 9 9 7 6 9 11 12 17 20 23 27 30 33 35 36 37 40 41 43 46 47 47 47 47 45 45 42 39 38 38 37 38 39 40 39 38 39 41 43 44 45 46 46 45 43 42 41 39 38 37 35 33 31 29 28 26 24 23 21 19 18 18
4 4 3 0 4 3 2 4 1 4 8 4 6 7 6 12 9 4 9 10 8 8 7 8 7 7 9 9 10 9 7 8 6 6 6 7 7 7 6 7 8 11 16 19 22 25 29 31 33 35 37 39 40 41 44 45 47 49 48 47 46 44 42 42 42 41 40 41 40 38 39 40 41 42 45 47 49 48 47 46 44 43 42 40 39 36 34 32 31 29 28 26 25 23 22 20 19
6 6 6 5 3 2 3 4 3 6 7 2 3 5 4 9 7 9 14 14 12 9 8 9 8 8 10 9 9 9 10 9 7 6 6 6 6 7 6 7 9 12 16 19 23 26 28 30 33 36 37 38 40 41 43 45 47 49 48 46 45 43 43 44 43 42 40 40 40 40 42 43 43 45 48 50 51 50 49 48 47 45 44 42 40 38 36 34 33 31 30 29 27 25 23 21 19
7 6 5 5 6 5 4 5 6 8 6 2 1 4 4 4 3 7 10 8 7 6 6 7 6 6 7 7 8 8 9 9 8 8 8 6 6 6 6 9 12 15 17 20 24 27 29 31 35 36 36 38 41 42 44 47 49 47 45 44 43 44 45 44 43 42 41 41 41 42 43 44 45 46 48 48 49 49 50 49 48 47 45 43 42 40 38 36 35 33 32 30 28 26 25 24 22
4 4 4 4 5 5 5 6 6 4 4 3 3 4 5 4 5 7 8 8 7 7 6 4 6 6 5 6 8 7 7 7 7 8 9 8 6 5 7 10 12 14 17 21 25 28 31 32 34 37 37 39 42 43 45 48 47 45 44 45 44 44 43 42 43 44 44 44 44 43 44 45 45 44 44 45 45 47 50 50 49 49 47 45 44 42 41 39 37 36 35 33 31 29 28 27 25
1 3 3 5 2 6 5 7 2 0 5 7 6 8 6 5 9 8 4 6 8 7 7 5 7 6 4 5 7 6 7 7 7 8 9 9 7 5 8 10 12 15 18 22 26 29 30 29 30 33 35 36 40 44 46 46 44 43 45 47 45 45 45 46 46 46 45 43 42 43 43 43 44 44 43 44 44 46 48 49 50 50 49 48 46 45 43 41 40 39 38 36 34 32 31 29 27
4 3 5 2 2 2 2 3 2 3 9 8 7 14 11 5 8 4 5 5 5 6 6 5 5 6 5 7 7 7 8 8 8 9 9 10 11 8 7 10 14 17 20 22 24 26 27 27 27 30 33 37 41 44 44 42 43 44 46 47 47 48 48 47 47 44 42 40 40 42 43 43 44 44 43 43 44 45 46 48 49 49 50 49 48 47 45 43 42 41 40 38 36 35 33 31 28
4 3 2 2 1 3 2 2 3 6 10 7 8 15 12 8 10 6 5 7 8 8 6 4 4 6 6 7 8 9 8 7 9 10 10 11 14 14 9 8 12 16 18 20 21 24 28 30 29 29 32 35 37 38 39 40 42 44 45 47 48 48 47 46 45 42 40 41 43 44 44 44 44 43 43 43 44 45 45 47 48 48 49 49 49 48 47 45 44 43 42 40 38 36 35 33 30
1 1 2 1 3 3 2 3 2 5 9 8 8 10 8 9 10 9 8 9 9 8 6 5 8 7 6 7 8 9 9 9 10 9 9 9 11 15 16 13 11 13 16 18 20 24 27 29 30 31 32 32 32 35 39 41 43 44 44 43 44 46 48 47 45 42 41 43 45 45 44 44 43 43 44 44 44 46 46 47 47 46 46 47 48 49 48 47 46 44 43 41 39 38 36 34 32
2 3 4 4 3 1 2 2 2 3 7 7 8 9 8 6 7 11 9 7 8 8 7 7 8 6 7 8 8 8 8 8 8 8 9 9 9 14 20 21 16 13 14 16 19 21 23 25 28 31 31 31 34 36 38 41 43 43 42 42 44 46 47 46 44 42 43 43 43 44 45 44 43 44 44 45 45 46 46 46 46 46 46 46 47 48 48 48 46 45 43 42 41 39 38 35 33
5 5 6 6 6 3 5 7 5 5 6 7 9 10 8 4 6 14 12 6 7 8 6 6 8 8 9 7 6 7 7 8 9 9 9 9 9 10 16 22 21 16 14 14 17 19 22 25 28 30 31 34 37 38 39 41 40 40 42 44 43 43 42 42 41 42 43 43 42 43 44 43 44 45 45 46 47 46 46 46 46 45 45 45 46 47 48 48 47 46 44 43 42 41 39 36 34
Wind_Direction
73 48 347 354 353 87 25 54 77 321 73 295 276 221 261 235 236 265 262 260 181 243 204 129 168 150 122 175 189 189 174 173 170 148 212 221 146 163 166 171 173 172 172 174 176 172 167 167 168 166 164 161 161 160 159 159 159 156 153 154 153 153 153 152 151 150 150 147 146 144 139 132 138 140 127 122 124 125 134 140 123 107 105 100 105 108 105 103 108 137 148 183 220 100 82 360 334
71 27 1 360 13 55 264 66 95 330 40 317 280 185 258 294 288 234 224 204 205 249 100 109 117 100 77 69 137 151 208 210 182 169 233 153 147 172 174 174 173 173 174 174 179 179 175 175 176 175 174 172 170 167 166 167 167 164 160 159 158 158 158 158 155 156 156 150 151 147 139 135 146 145 128 129 135 136 136 140 122 111 127 116 112 133 131 112 114 179 209 221 231 265 288 301 302
86 50 9 4 18 42 68 42 96 35 43 282 278 236 265 293 235 235 226 213 230 261 52 133 138 98 85 17 87 155 237 261 189 184 252 165 169 183 179 177 177 176 176 176 180 183 181 179 181 180 177 177 177 174 173 173 172 169 168 169 169 170 168 169 168 169 169 162 164 160 155 157 156 147 141 142 139 137 125 122 115 122 149 140 144 180 182 193 222 227 239 251 257 271 281 289 291
85 68 13 54 49 28 65 37 141 125 219 243 272 263 241 223 237 249 247 240 251 316 38 152 186 184 122 237 239 130 251 269 208 179 168 192 193 182 178 178 179 179 179 180 181 184 184 181 181 178 178 179 181 182 178 178 176 172 173 176 176 181 181 179 177 176 177 175 174 171 168 167 159 151 151 145 140 149 152 153 143 135 142 150 183 202 199 211 229 241 249 259 265 273 276 277 278
80 70 23 65 94 36 95 64 109 125 221 198 227 270 238 221 244 254 262 277 266 198 219 134 239 266 142 225 201 185 229 251 219 192 184 200 195 179 178 178 180 182 182 183 183 185 186 185 182 177 181 181 183 186 182 180 177 174 175 176 177 181 184 180 178 177 176 176 173 170 168 164 159 151 143 141 153 174 181 179 173 162 151 162 187 196 196 207 222 235 248 254 259 264 266 268 272
111 86 35 60 92 106 117 164 173 207 228 174 198 264 254 233 238 241 272 306 285 227 209 193 223 226 253 261 202 212 209 135 164 196 203 200 190 179 178 180 182 184 185 185 186 187 187 187 185 180 181 181 184 185 181 179 175 173 174 174 176 177 177 174 174 174 171 171 169 169 168 161 160 160 154 160 174 179 179 178 178 176 170 169 170 174 183 192 202 212 224 229 234 241 250 262 269
136 133 22 65 64 33 119 194 204 233 238 180 195 252 266 260 224 205 271 310 282 252 197 201 184 132 242 275 254 244 215 205 143 190 208 196 184 177 178 181 183 185 186 188 188 188 186 186 185 181 180 181 183 182 180 178 174 172 173 172 174 175 173 173 171 170 168 167 166 165 163 159 170 180 180 182 183 176 173 173 173 176 174 170 165 161 164 168 175 173 173 169 160 145 131 117 37
91 130 14 98 88 6 116 225 228 219 244 216 220 237 256 262 175 165 214 199 206 245 212 224 152 147 261 350 260 254 219 226 223 203 203 193 184 176 181 183 183 185 187 189 187 187 186 185 183 180 179 179 181 180 179 178 176 174 174 174 173 173 173 172 169 167 166 164 162 163 166 172 185 189 188 187 182 175 169 167 168 171 170 169 164 154 146 143 142 137 135 130 123 117 110 101 91
54 44 41 101 152 328 16 275 260 234 253 253 253 245 258 246 169 174 199 238 263 235 246 229 156 196 273 334 261 277 238 228 224 236 205 192 186 180 184 186 186 185 186 189 186 186 188 187 182 179 179 180 182 181 180 179 178 175 174 173 172 173 170 169 171 172 173 173 174 177 183 187 190 188 187 185 177 171 165 163 160 158 156 155 151 144 138 130 125 122 120 120 120 115 110 104 99
34 25 144 98 130 276 302 267 250 253 247 249 263 253 259 222 177 188 185 239 254 229 266 199 155 231 260 244 256 282 229 219 216 228 197 189 188 185 187 189 190 187 187 189 188 190 192 192 185 182 182 182 184 182 182 180 178 176 174 174 174 172 170 175 181 184 184 185 186 187 190 188 186 184 182 178 171 166 161 158 154 150 147 142 139 135 130 125 123 121 120 122 124 120 114 106 101
30 353 109 99 91 223 255 253 258 261 265 296 287 259 246 194 161 189 187 260 240 230 278 125 187 235 198 277 254 235 214 204 209 211 186 186 189 188 189 190 192 192 191 189 191 195 196 196 191 189 187 184 185 182 183 182 180 178 176 175 175 175 179 187 189 191 191 190 190 189 189 185 183 180 176 172 166 161 158 155 151 148 144 139 134 128 123 122 121 120 120 119 117 111 108 103 100
84 334 59 110 178 211 220 246 270 275 296 310 280 277 226 149 144 195 200 246 238 233 251 186 198 171 145 283 259 268 251 204 203 203 186 186 190 190 191 191 192 196 197 194 195 198 198 199 197 195 190 187 185 184 185 183 182 179 179 181 183 188 191 195 194 194 195 193 191 189 186 182 180 177 174 170 164 160 157 154 151 147 143 139 132 127 124 121 116 113 111 105 104 99 98 97 98
122 136 86 150 196 188 204 228 277 304 312 268 245 295 113 139 187 210 180 216 222 198 248 215 167 124 198 259 282 305 268 204 192 191 187 186 191 190 192 192 192 196 200 201 201 201 202 202 201 198 191 190 189 187 189 186 187 188 190 193 195 197 197 198 198 197 196 193 191 188 184 181 178 175 172 169 165 161 158 155 152 148 144 140 134 131 128 125 119 114 111 108 109 102 97 92 93
139 147 114 216 267 119 200 241 284 291 285 261 260 292 151 175 212 186 142 214 232 194 241 208 145 92 241 275 307 300 247 196 183 184 185 185 190 190 193 194 194 197 201 206 206 206 206 204 203 200 195 195 194 193 195 194 195 198 198 200 200 200 200 200 200 198 195 192 190 187 183 180 176 173 172 170 167 163 159 156 151 147 145 141 139 139 137 135 134 133 130 129 128 126 122 114 109
147 129 95 126 328 340 219 232 247 177 258 264 279 284 208 252 145 131 184 216 247 217 245 187 157 195 209 196 236 277 250 186 178 179 181 183 188 191 195 196 198 200 204 208 209 210 208 205 204 202 201 200 199 198 199 199 200 202 200 201 201 201 201 200 198 195 193 191 189 185 182 178 176 175 174 171 169 166 161 157 151 148 146 145 146 147 147 146 147 148 148 153 155 159 165 168 169
115 105 71 4 273 296 227 219 187 160 259 249 271 349 251 270 144 144 227 194 273 267 153 202 189 206 184 183 222 297 252 176 174 176 177 181 186 191 196 198 202 203 207 210 210 211 208 207 206 205 205 203 203 203 203 202 202 202 201 202 202 201 200 198 197 194 193 191 188 184 181 179 177 176 175 172 168 166 162 158 154 154 154 152 153 151 149 148 147 147 147 149 149 150 151 155 155
72 84 73 299 221 216 212 208 192 193 264 269 300 332 174 288 286 220 241 144 255 272 254 231 226 223 189 214 286 316 175 169 169 171 173 179 184 188 196 199 202 205 208 210 211 211 210 210 209 207 206 205 205 205 206 204 204 203 202 203 201 200 199 197 196 195 193 189 186 183 181 179 178 176 174 172 168 166 164 161 159 159 159 157 156 155 152 150 149 146 145 143 139 139 136 136 135
67 91 143 245 204 202 194 194 203 195 270 274 304 263 181 267 292 299 342 271 257 267 275 275 283 268 227 278 312 166 164 167 168 169 171 176 182 187 195 200 202 206 208 209 212 212 212 212 211 210 208 206 207 207 207 205 204 203 204 204 201 201 199 199 198 195 191 187 185 183 182 180 177 176 174 171 169 168 166 164 164 163 162 161 160 156 153 150 148 146 145 143 140 137 135 132 125
132 126 180 235 204 216 202 193 212 210 252 274 293 281 187 233 268 36 271 264 270 264 273 299 287 271 262 286 146 161 165 168 171 173 175 179 185 191 196 201 203 207 209 210 213 212 213 214 212 211 210 208 208 209 208 206 205 204 205 205 203 202 201 202 199 194 191 188 187 184 183 180 177 175 173 172 170 169 169 168 167 164 162 159 156 151 147 144 141 141 139 138 137 134 134 129 123
177 140 219 245 215 234 240 213 225 231 253 294 290 286 187 239 249 128 240 268 270 242 247 244 251 256 248 205 152 167 169 173 179 181 185 189 193 195 197 199 203 209 211 212 212 212 213 214 214 213 211 210 209 209 208 207 206 206 206 206 206 204 204 203 199 195 193 190 188 186 184 181 179 177 174 174 173 172 171 168 165 159 155 150 147 143 139 138 136 136 135 133 132 129 127 121 117
178 160 211 237 195 230 250 222 231 248 242 255 276 344 292 263 218 199 237 286 277 241 221 221 225 239 235 201 176 178 176 183 188 191 195 198 201 203 205 204 207 210 212 213 213 213 214 214 215 213 212 211 211 211 209 208 207 206 206 207 207 206 206 203 199 197 194 192 190 188 186 184 182 180 178 177 176 176 171 166 161 154 151 146 143 141 136 135 134 133 131 130 126 120 116 110 107
165 214 226 230 170 225 254 223 226 238 198 229 278 308 283 275 241 219 207 244 264 247 206 218 222 231 226 193 186 183 184 193 193 200 203 204 207 208 212 212 212 213 213 215 215 215 215 215 215 213 212 212 213 213 211 210 209 208 207 207 207 206 206 203 200 198 196 195 192 191 190 188 186 184 182 180 179 177 172 165 159 154 151 146 143 142 137 135 136 134 132 128 118 110 105 98 95
223 251 248 238 206 229 261 237 225 212 212 260 262 279 290 298 281 226 190 228 254 257 209 213 226 232 224 175 172 184 194 199 199 204 204 206 210 211 213 213 213 213 213 216 217 216 216 216 215 214 213 213 214 214 213 212 211 211 209 209 209 207 205 204 202 199 198 196 195 195 194 192 189 186 185 183 180 177 172 166 161 157 154 149 145 144 142 140 140 138 135 126 114 105 95 88 86
233 257 261 249 224 231 254 260 262 261 259 261 272 317 292 267 277 262 211 240 253 263 247 232 242 232 201 164 177 193 197 201 206 208 207 208 211 213 214 213 214 214 215 218 218 217 217 216 215 215 215 214 214 214 215 214 214 213 211 211 211 209 207 206 204 201 200 199 199 199 198 197 192 189 188 184 181 176 173 170 165 162 159 155 150 148 147 143 142 139 134 124 117 108 95 89 79
225 238 250 257 239 241 258 267 269 267 259 259 287 290 264 246 271 304 265 260 262 263 255 247 247 220 187 191 198 200 203 208 213 214 214 216 217 219 219 217 216 216 218 220 218 218 218 217 216 216 215 215 215 215 215 215 215 213 212 212 211 211 210 209 207 204 203 202 202 201 201 200 196 193 190 186 181 177 175 173 170 167 164 160 155 152 151 147 145 141 135 129 120 109 96 83 70
219 226 254 268 273 271 271 268 248 242 245 211 228 270 267 256 277 277 263 262 271 264 248 249 239 222 210 211 207 201 209 212 216 217 218 221 222 223 223 220 218 219 221 220 219 219 219 217 217 217 216 216 215 215 216 216 215 214 213 213 213 212 212 211 209 208 206 205 205 204 203 202 200 197 192 188 183 180 178 176 174 171 169 166 162 160 157 155 152 144 142 136 125 117 99 79 66
200 221 269 261 276 287 257 250 242 222 241 200 202 260 270 280 121 267 265 254 277 291 263 257 229 232 227 220 218 209 213 217 216 216 219 223 222 225 225 220 220 222 221 221 222 221 218 218 218 217 216 216 215 215 216 216 215 215 214 214 214 213 213 211 210 210 209 208 208 207 205 203 203 200 195 191 186 183 182 180 178 175 175 171 168 169 165 160 155 148 143 137 132 128 109 88 66
212 271 304 284 299 302 265 257 253 206 249 206 188 253 278 307 176 251 265 257 338 311 286 272 231 240 239 226 227 215 221 226 220 214 217 219 218 222 222 220 222 222 221 222 222 220 218 218 219 218 216 215 215 215 216 217 216 215 215 214 214 214 213 212 211 211 211 210 210 210 208 204 203 202 198 195 190 188 185 183 181 179 180 176 172 174 170 162 156 151 147 143 141 130 120 102 67
313 32 326 297 335 313 279 276 242 185 225 186 156 262 285 262 233 241 258 264 295 288 278 274 250 244 246 235 231 224 229 229 219 217 223 223 222 221 222 224 222 220 223 224 221 219 220 219 218 217 215 214 214 216 216 216 216 215 215 215 215 214 214 213 212 212 212 212 212 211 209 205 203 203 201 198 194 191 189 186 184 182 182 180 177 176 172 167 160 157 153 150 147 140 140 118 77
300 25 352 298 341 307 281 350 81 175 196 165 143 268 264 256 258 251 256 265 270 266 266 270 262 253 248 238 232 235 235 226 217 223 226 227 228 224 226 228 224 222 224 221 219 221 221 219 218 216 214 214 214 215 215 215 216 215 215 215 215 215 214 214 214 214 213 213 213 212 210 207 204 204 203 201 197 194 192 189 188 185 184 182 180 177 176 172 167 166 161 161 166 170 173 146 96
301 307 284 304 321 282 289 34 102 240 223 158 155 253 251 262 271 265 258 247 228 245 260 264 267 266 259 246 234 241 240 227 226 229 230 232 232 229 230 231 226 224 223 219 222 222 220 218 216 214 213 214 214 214 214 215 216 215 215 215 214 215 215 215 214 214 214 214 214 213 210 209 206 205 205 204 200 197 195 193 191 188 186 184 182 179 180 177 173 171 168 174 185 191 197 168 62
4 273 281 307 212 269 301 298 208 226 265 129 155 244 255 258 270 273 278 213 206 235 259 264 267 267 266 263 246 244 248 238 235 236 236 236 235 233 232 232 226 224 222 221 223 220 218 218 216 214 213 213 213 213 214 214 215 215 215 215 215 215 215 215 215 215 215 214 215 213 211 210 209 207 206 206 203 200 198 196 192 190 189 186 185 184 182 181 178 174 172 178 189 203 212 217 28
336 215 246 262 242 261 307 297 235 207 231 171 199 237 264 256 265 277 287 208 210 238 261 263 265 266 264 270 264 257 260 255 246 241 239 237 236 235 233 232 228 225 225 223 221 218 217 217 215 214 214 213 213 212 212 213 214 214 215 215 215 215 215 216 215 215 215 214 214 214 213 212 211 209 207 207 206 204 201 198 195 192 192 189 188 187 184 183 180 178 175 173 183 201 206 343 14
289 231 227 241 248 248 283 295 286 190 176 211 231 238 254 259 268 285 289 265 230 239 259 260 261 266 263 266 268 266 265 261 255 244 240 238 237 237 234 232 230 227 226 223 221 219 218 216 214 214 215 213 212 211 210 210 212 213 215 215 214 214 215 216 216 215 215 215 215 215 215 214 212 210 209 208 208 207 203 200 198 195 193 192 190 189 187 185 181 181 180 176 181 184 189 356 12
234 225 236 251 246 243 252 268 278 269 211 209 241 251 253 264 271 280 281 277 264 251 257 260 260 265 265 264 262 261 264 263 259 252 247 243 241 238 233 231 230 227 225 223 221 219 217 215 213 213 213 211 210 209 208 207 209 211 212 213 214 214 214 215 215 216 217 217 216 216 215 215 214 212 210 209 208 207 204 201 200 197 195 194 192 191 189 188 185 183 182 182 184 184 251 360 12
223 222 238 256 258 249 245 250 254 270 278 251 249 258 258 264 267 267 272 276 275 266 263 263 260 261 263 262 258 255 257 258 259 260 256 248 244 241 234 230 227 226 223 221 218 216 215 213 212 211 211 209 207 205 203 203 204 207 208 209 211 212 213 214 216 218 218 218 218 217 216 215 214 212 211 210 209 208 205 203 201 199 198 197 197 196 195 193 189 186 184 183 187 189 211 357 7
231 226 243 248 257 263 254 258 261 248 283 259 243 261 265 261 262 262 266 273 276 274 269 264 260 257 258 260 259 255 251 255 262 267 263 252 247 241 234 229 223 221 220 218 215 213 213 212 210 210 209 206 203 201 200 200 201 201 203 206 209 210 211 213 216 217 218 219 218 217 217 216 215 213 212 211 210 209 206 204 202 201 200 200 201 201 197 192 188 188 186 182 188 195 195 346 6
246 235 255 257 246 260 259 263 272 244 210 257 242 261 267 262 263 262 261 263 262 266 267 266 263 257 256 257 260 258 253 257 264 268 264 253 246 238 229 223 216 215 215 214 214 214 213 212 211 210 207 203 203 202 201 201 202 202 202 206 208 209 210 212 214 216 217 218 218 217 217 216 215 214 213 212 211 209 207 205 204 203 202 201 199 197 196 194 191 191 190 184 184 189 194 123 31
238 239 260 265 250 267 269 259 274 273 187 268 265 264 265 260 261 256 252 251 246 255 261 262 262 260 259 255 257 261 260 264 263 263 266 255 238 231 224 217 215 215 214 213 214 214 211 210 210 209 206 203 204 203 202 202 203 204 205 207 207 207 210 212 214 215 215 215 217 217 218 217 216 215 213 213 212 211 209 207 206 205 204 202 198 196 196 196 195 193 192 191 185 178 180 170 95
221 227 245 262 255 263 266 257 297 319 229 271 285 279 270 253 255 251 246 248 244 250 257 260 259 254 256 254 256 264 266 268 266 264 269 258 227 221 217 215 215 214 213 213 212 210 209 209 210 208 206 205 204 203 203 203 202 203 205 207 207 206 210 212 213 215 215 214 216 217 218 218 217 216 215 214 213 212 211 210 209 207 206 204 202 202 201 199 198 196 194 194 192 181 176 182 166
225 215 221 249 252 247 253 280 344 331 280 295 311 295 280 221 230 246 243 245 247 247 253 261 260 250 253 259 263 264 263 264 266 267 269 261 227 219 217 216 214 211 212 213 210 209 209 210 209 207 206 204 203 202 201 200 198 198 199 202 203 204 207 207 208 212 213 213 215 215 217 217 217 217 216 215 215 214 213 211 211 210 207 205 205 207 206 204 202 201 200 198 198 192 186 184 176
253 215 215 239 252 257 265 293 351 346 303 328 7 315 294 194 193 236 246 239 243 242 243 251 256 254 255 262 264 261 259 260 263 265 269 266 245 227 221 217 212 212 215 215 213 212 211 210 208 206 204 203 202 201 199 197 196 195 194 193 193 195 199 203 206 209 210 211 214 214 215 215 216 217 217 216 216 216 215 213 213 212 210 207 207 208 207 206 204 202 202 199 197 195 192 184 176
274 228 212 233 249 261 264 274 317 284 257 298 57 351 290 279 193 216 230 223 238 242 238 245 252 260 261 259 263 264 262 261 262 263 264 262 253 234 224 218 212 217 221 218 215 213 211 210 207 204 203 202 200 199 197 196 195 195 196 196 196 196 199 207 211 211 211 211 212 213 214 215 216 217 217 217 216 216 216 215 214 213 212 210 209 207 206 206 206 204 202 198 195 194 193 188 180
268 238 199 208 224 241 240 228 225 230 273 307 107 135 276 288 249 197 211 210 238 253 247 250 252 256 259 256 260 264 265 262 260 262 260 261 262 249 237 227 221 224 224 217 214 212 210 209 206 203 202 201 199 197 197 197 197 197 198 199 201 203 206 210 212 211 212 212 211 213 214 214 215 216 218 218 217 217 217 216 215 213 213 212 210 209 207 207 206 203 200 195 195 194 195 196 188
255 204 169 179 193 213 180 173 202 238 342 297 218 136 245 278 276 114 193 203 233 252 246 250 254 257 261 257 258 262 268 268 259 257 261 270 278 257 245 240 233 229 224 217 215 212 209 207 204 201 201 200 199 198 198 199 200 199 199 200 204 208 210 212 212 209 210 211 210 212 213 213 214 215 217 218 217 218 217 216 215 214 213 213 211 210 208 207 206 204 201 198 196 193 194 199 198
232 116 100 78 83 80 104 150 160 84 305 247 196 165 215 276 275 90 71 200 228 244 242 249 255 267 273 264 261 265 270 273 268 265 270 281 287 272 259 252 243 233 225 220 216 210 206 203 201 200 200 200 199 198 199 199 200 200 201 202 205 208 208 209 210 208 209 209 209 210 211 212 213 214 215 217 218 218 217 217 216 215 214 213 212 210 208 206 206 207 206 203 200 196 193 195 199
149 101 54 30 21 27 56 46 85 54 280 230 183 183 188 273 278 130 164 219 224 238 246 260 257 259 269 267 266 267 267 273 284 293 299 313 317 306 281 256 245 234 224 219 213 207 204 201 200 200 200 199 199 199 199 200 200 202 204 205 206 207 205 204 204 205 206 207 207 208 209 210 211 213 214 215 216 217 217 217 217 216 215 214 212 211 209 207 206 207 206 204 201 199 198 195 195
130 103 61 17 332 4 26 350 51 191 267 223 180 181 181 235 257 182 250 265 248 232 228 249 254 257 269 278 276 272 270 276 300 321 327 341 344 329 294 254 240 226 215 212 210 206 202 201 199 198 199 199 199 199 200 200 201 203 206 207 207 207 205 204 205 206 205 205 206 206 205 207 209 211 212 213 214 215 215 216 216 215 215 214 213 212 210 209 208 206 205 204 201 199 201 199 197
128 119 127 169 306 337 346 317 83 216 258 240 169 167 199 246 255 248 264 273 256 229 218 231 241 257 271 280 283 287 297 301 322 340 329 328 322 307 290 269 246 222 210 208 208 205 203 201 199 198 199 200 199 199 200 201 203 206 207 208 209 208 207 208 209 209 209 208 206 204 204 205 206 208 210 211 213 213 213 214 214 214 215 214 214 212 211 209 208 207 205 204 204 202 203 203 204
160 153 158 172 215 250 258 264 260 257 267 279 153 163 238 277 271 229 233 245 245 227 220 231 234 253 271 282 294 303 310 312 320 317 303 297 291 287 281 266 249 231 217 209 207 206 204 202 200 201 201 200 199 200 201 203 206 209 209 209 209 209 209 210 211 212 211 210 208 207 207 207 207 209 211 212 213 212 212 213 214 214 215 214 214 212 211 210 208 207 207 206 206 205 205 206 206
185 167 147 182 196 192 214 230 249 265 274 298 191 180 217 269 278 233 230 256 278 243 229 246 253 263 278 289 296 301 303 306 311 306 301 287 268 267 261 249 242 235 224 215 211 208 206 205 203 203 202 200 200 201 202 205 209 210 210 212 211 211 211 212 213 214 213 213 212 211 211 211 212 213 214 214 213 211 211 212 213 214 214 214 213 212 210 209 208 207 208 208 207 206 206 206 205
223 129 112 228 210 177 224 246 235 252 290 272 226 222 228 237 268 264 252 267 280 261 257 288 288 280 294 295 288 291 294 300 309 310 309 299 273 247 242 241 240 236 228 221 216 212 211 210 207 205 204 203 202 203 205 207 209 209 210 212 213 213 212 213 214 215 215 215 214 213 214 215 215 215 215 215 214 212 212 211 212 213 213 213 212 211 210 208 207 207 207 207 207 206 206 207 205
210 114 185 239 157 149 231 269 260 239 270 254 241 258 273 291 285 282 277 267 264 271 289 298 288 290 301 282 275 283 291 297 299 293 296 299 290 264 246 242 238 234 230 228 223 218 217 217 214 210 207 206 205 206 208 208 208 209 211 213 213 213 213 214 215 216 216 215 214 215 216 216 216 216 216 215 215 214 213 212 211 211 211 212 212 211 210 209 207 207 207 207 207 206 206 207 206
135 171 221 239 58 125 186 264 301 256 254 250 247 261 272 284 275 308 26 339 290 284 295 299 293 296 291 281 281 280 275 278 289 297 306 310 308 301 270 245 241 238 238 238 231 224 223 223 223 219 213 210 210 210 210 210 209 210 212 213 214 214 215 216 217 217 216 213 214 215 215 216 217 216 215 215 215 215 214 213 211 210 210 210 210 210 209 208 208 207 208 208 207 206 206 206 206
150 217 249 103 205 245 167 184 230 241 251 253 241 254 266 260 257 273 296 283 275 270 275 283 266 261 275 289 294 294 292 302 321 328 328 323 317 315 311 275 255 250 248 246 238 229 226 224 224 225 225 220 216 213 213 213 212 213 214 215 215 215 216 218 218 217 215 214 215 215 215 216 217 216 215 214 214 214 213 212 212 211 209 208 208 208 208 207 207 207 207 207 207 206 206 205 205
84 288 319 94 185 207 186 190 191 231 253 260 247 247 251 253 265 271 247 237 250 249 235 245 250 248 268 293 306 320 330 328 327 320 309 310 311 310 315 312 288 267 258 251 243 234 230 228 223 223 228 229 226 221 217 215 215 216 217 217 217 217 217 218 218 216 216 216 216 216 215 216 215 215 214 214 214 214 212 212 211 211 209 207 206 206 207 206 206 206 206 206 206 206 206 206 205
180 218 233 223 212 209 248 227 172 220 250 254 251 246 237 247 283 277 251 217 227 226 205 233 263 281 300 310 315 318 317 306 299 293 291 298 302 302 308 315 315 297 273 255 246 241 237 235 230 225 224 227 229 227 222 220 219 218 219 219 219 219 218 218 217 216 217 218 218 217 217 216 215 214 214 213 213 213 212 211 211 210 210 208 206 205 205 204 204 204 206 206 206 205 205 206 204
176 199 215 221 221 235 270 254 211 206 238 242 249 254 242 221 275 277 267 224 207 213 215 263 294 304 301 295 285 281 282 285 285 285 288 294 298 298 303 309 313 307 284 260 249 245 242 238 234 231 227 226 229 229 227 226 223 221 222 222 222 221 220 218 217 217 218 219 219 218 217 215 214 215 214 213 212 212 211 211 210 210 210 209 208 206 204 203 203 203 204 205 205 204 204 204 203